Location: Strohbehn Observatory
(42.4649°N, 93.8239°W)
Time: 12:22:55
(UTC-05:00)

Daily predictions for brighter satellites

Satellite Brightness Start Highest point End
(mag) Time Altitude Azimuth Time Altitude Azimuth Time Altitude Azimuth
Cosmos 44 Rocket 3.7 20:23:23 10° SW 20:28:07 70° NW 20:33:02 10° NNE
Cosmos 1437 3.3 20:26:46 10° SSW 20:29:55 62° WNW 20:33:05 10° N
Cosmos 1346 Rocket 4.3 20:27:33 10° SSW 20:31:26 43° WNW 20:35:23 10° N
Cosmos 1666 Rocket 3.8 20:27:05 10° N 20:31:28 51° ENE 20:35:48 10° SSE
Cosmos 1408 4.4 20:33:14 10° NNE 20:35:30 16° ENE 20:37:47 10° ESE
Cosmos 2074 Rocket 4.4 20:29:48 10° SSW 20:36:06 73° W 20:42:23 10° N
FREGAT/IRIS 4.3 20:35:40 10° SSW 20:38:23 34° W 20:41:09 10° NNW
Cosmos 2333 Rocket 2.4 20:34:21 10° S 20:39:46 49° ESE 20:45:12 10° NE
H-2A R/B 4.0 20:38:05 10° E 20:39:57 12° ENE 20:41:48 10° NE
ERS-2 2.1 20:37:16 10° SSE 20:40:55 73° ENE 20:44:35 10° N
Sich 1 3.0 20:37:14 10° N 20:41:31 73° E 20:45:46 10° SSE
Resurs 1-3 4.0 20:37:31 10° SE 20:41:42 45° ENE 20:45:53 10° N
Cosmos 1151 Rocket 4.1 20:38:28 10° SE 20:41:51 23° E 20:45:16 10° NE
CZ-2D R/B 3.4 20:38:14 10° S 20:42:02 77° WSW 20:45:52 10° NNW
Cosmos 1455 2.7 20:38:35 10° SSE 20:42:09 38° E 20:45:44 10° NNE
Cosmos 1844 Rocket 2.8 20:36:57 10° NNW 20:42:40 84° WSW 20:48:19 10° SSE
Cosmos 1610 Rocket 4.5 20:36:59 10° S 20:43:05 86° E 20:49:18 10° N
USA 186 1.2 20:41:22 10° SSE 20:43:31 45° ENE 20:45:45 10° N
COSMOS 2428 2.8 20:39:10 10° SSW 20:44:54 90° WNW 20:50:40 10° NNE
Cosmos 2333 4.3 20:40:50 10° SSW 20:46:29 84° WNW 20:52:09 10° NNE
Cosmos 1809 Rocket 4.5 20:41:20 10° S 20:47:30 83° E 20:53:43 10° N
Cosmos 1892 2.7 20:45:22 10° N 20:49:16 72° E 20:53:07 10° SSE
Cosmos 1844 3.8 20:43:48 10° NNW 20:49:32 87° ENE 20:55:17 10° SSE
Cosmos 2251 Rocket 3.8 20:45:22 10° NNW 20:50:45 77° WSW 20:56:06 10° SSE
Envisat 3.3 20:46:31 10° S 20:51:34 71° WSW 20:56:39 10° NNW
YAOGAN 6 2.5 20:50:02 10° SSE 20:53:36 71° ENE 20:57:15 10° N
Cosmos 2219 Rocket 2.2 20:48:36 10° SSW 20:54:14 76° ESE 20:59:54 10° NNE
Meteor 2-2 Rocket 4.3 20:49:35 10° S 20:55:25 82° E 21:01:25 10° NNE
Cosmos 2237 Rocket 2.6 20:51:14 10° S 20:56:23 38° ESE 21:01:33 10° NE
SJ-11-01 4.4 20:54:22 10° SSE 20:58:55 57° ENE 21:03:30 10° N
Genesis I 3.4 20:57:45 10° NNW 21:01:49 63° NE 21:05:02 15° SE
Cosmos 1633 Rocket 3.1 20:59:12 10° N 21:03:34 87° W 21:07:54 10° S
Meteor 2-14 Rocket 4.4 20:57:47 10° S 21:03:53 84° E 21:10:02 10° N
Cosmos 2278 Rocket 2.5 20:59:42 10° NNW 21:05:16 52° ENE 21:09:51 15° SE
Nadezhda 3 Rocket 4.2 20:59:40 10° N 21:06:00 81° W 21:12:21 10° S
Cosmos 2098 Rocket 4.1 21:07:13 14° SE 21:10:17 25° E 21:13:33 10° NE
NOAA 11 4.3 21:05:54 10° SSE 21:11:18 60° ENE 21:16:43 10° N
CZ-3B R/B 3.2 21:10:15 10° NNW 21:11:34 22° NE 21:11:54 20° ENE
Meteor 2-16 Rocket 4.4 21:07:50 10° S 21:13:58 83° E 21:20:07 10° N
Cosmos 1340 4.4 21:10:56 10° SW 21:14:27 36° WNW 21:18:00 10° N
Cosmos 1515 Rocket 3.6 21:10:58 10° S 21:15:20 59° E 21:19:45 10° NNE
Cosmos 2228 Rocket 3.0 21:16:04 10° S 21:20:25 67° E 21:24:48 10° NNE
Thor Agena Rocket 4.2 21:16:38 10° N 21:21:47 61° WNW 21:26:58 10° SSW
Lacrosse 5 4.2 21:21:55 10° NNW 21:25:05 16° N 21:28:14 10° NE
Cosmos 1825 2.2 21:24:04 10° N 21:27:49 58° E 21:29:46 26° SSE
SPOT 5 4.4 21:28:34 16° E 21:29:39 17° ENE 21:32:31 10° NNE
ATLAS 2AS CENTAUR R/B 3.1 21:26:03 10° NW 21:33:56 73° WSW 21:39:43 17° SSE
Cosmos 1328 Rocket 4.2 21:29:46 10° SSW 21:34:07 58° W 21:38:30 10° N
Spot 2 Rocket 3.7 21:29:19 10° S 21:34:24 73° WSW 21:39:31 10° NNW
ATLAS CENTAUR R/B 2.0 21:32:33 10° SW 21:36:08 51° NW 21:39:54 10° NNE
SL-8 R/B 3.6 21:33:50 10° SW 21:38:36 79° SSE 21:43:25 10° ENE
GEOS 3 Rocket 4.3 21:37:47 10° NE 21:42:28 31° ESE 21:43:44 27° SE
Resurs 01 Rocket 2.9 21:40:36 10° SSW 21:44:45 39° W 21:48:56 10° NNW
SL-16 R/B 2.6 21:43:11 20° SSE 21:46:34 40° ESE 21:51:49 10° NE
Cosmos 1470 Rocket 4.2 21:42:24 10° NNW 21:46:44 56° W 21:50:30 13° S
Cosmos 2344 4.1 21:43:37 10° S 21:50:17 34° ESE 21:57:16 10° NE
ARGOS 3.1 21:48:17 29° SSE 21:50:59 66° ENE 21:56:19 10° N
MetOp-B 4.2 21:51:06 32° SE 21:53:32 62° ENE 21:58:49 10° N
Cosmos 1959 Rocket 4.4 21:47:50 10° S 21:54:01 89° W 22:00:11 10° N
Cosmos 1727 Rocket 3.9 21:48:50 10° N 21:55:00 67° E 21:58:14 29° SSE
SL-08 RB Rocket 3.8 21:56:34 42° SE 21:57:44 57° ENE 22:02:08 10° N
Cosmos 1869 3.4 21:55:17 20° SSW 21:57:58 77° W 22:02:01 10° N
NOSS 3-4 (A) 3.9 21:57:24 10° NNW 22:04:24 68° NE 22:07:53 34° SE
NOSS 3-4 (C) 3.9 21:57:30 10° NNW 22:04:30 67° NE 22:07:58 34° ESE
Meteor 2-10 Rocket 3.7 22:01:53 16° S 22:06:35 86° E 22:12:27 10° N
BREEZE-M DEB (TANK) 4.3 22:08:42 10° NW 22:10:22 18° N 22:10:44 17° NNE
SPOT 1/Viking Rocket 4.1 22:09:39 38° E 22:10:34 42° ENE 22:15:28 10° N
Cosmos 1408 4.2 22:07:24 10° NNW 22:10:41 32° W 22:12:36 19° SW
USA 81 3.9 22:05:58 10° N 22:11:16 78° E 22:13:03 43° SSE
ERS-1 Rocket 2.9 22:10:08 47° SE 22:11:32 72° ENE 22:16:33 10° N
Cosmos 2218 Rocket 4.4 22:05:16 10° SSW 22:11:35 67° W 22:17:59 10° N
Cosmos 614 Rocket 4.4 22:07:08 10° N 22:12:08 43° ENE 22:12:58 40° E
Cosmos 407 Rocket 3.3 22:07:59 10° NNW 22:13:08 83° ENE 22:14:31 50° SSE
USA 267 3.5 22:08:49 10° ENE 22:14:59 43° SE 22:21:08 10° SSW
Cosmos 2297 3.6 22:12:05 10° NNW 22:17:47 78° ENE 22:19:22 49° SE
H-2A R/B 1.9 22:17:10 47° SSE 22:18:40 90° WSW 22:23:40 10° NNW
Cosmos 1441 Rocket 3.3 22:20:35 62° NNE 22:20:35 62° NNE 22:23:47 10° NNE
Cosmos 2366 rocket 4.5 22:16:53 10° SSW 22:23:00 60° W 22:29:14 10° N
Cosmos 2369 Rocket 3.8 22:19:50 10° N 22:24:07 21° NE 22:25:18 20° ENE
Cosmos 2333 Rocket 4.3 22:19:32 10° WSW 22:24:16 27° NW 22:29:03 10° N
Helios 1B rocket 3.6 22:22:43 10° NNE 22:25:09 30° NE 22:25:09 30° NE
Cosmos 1707 Rocket 3.5 22:30:05 70° NE 22:30:05 70° NE 22:34:04 10° N
Landsat 7 4.2 22:29:59 47° ENE 22:29:59 47° ENE 22:34:27 10° N
Cosmos 676 Rocket 3.8 22:28:04 10° NNW 22:33:21 78° ENE 22:33:55 69° SE
Cosmos 1869 Rocket 3.8 22:33:27 10° NNW 22:37:47 62° W 22:38:04 60° WSW
Cosmos 2237 Rocket 3.9 22:35:27 10° WSW 22:40:28 33° NW 22:45:32 10° N
CZ-4C R/B 3.5 22:44:42 25° ENE 22:44:42 25° ENE 22:47:25 10° NE
Cosmos 2056 Rocket 4.5 22:39:31 10° SW 22:44:44 47° WNW 22:49:58 10° N
Cosmos 1023 Rocket 4.3 22:39:50 10° NNW 22:45:01 84° ENE 22:45:08 83° ESE
Helios 1A 3.2 22:45:20 65° WNW 22:45:20 65° WNW 22:49:13 10° NNW
Cosmos 1452 Rocket 3.4 22:45:53 69° ENE 22:45:53 69° ENE 22:50:46 10° NNE
Cosmos 1862 4.1 22:41:41 10° NNW 22:45:27 48° W 22:45:27 48° W
CARTOSAT-1 4.4 22:48:33 41° NNE 22:48:33 41° NNE 22:51:44 10° N
Terra 2.4 22:48:17 44° NE 22:48:17 44° NE 22:52:14 10° N
Cosmos 2278 Rocket 4.1 22:44:35 10° NW 22:48:56 23° W 22:51:44 16° SW
USA 234 4.3 22:45:38 22° ENE 22:49:05 38° NNE 22:55:00 10° NW
Cosmos 1733 Rocket 4.1 22:44:54 10° N 22:47:58 37° NNE 22:47:58 37° NNE
Cosmos 405 Rocket 3.7 22:50:12 45° WNW 22:50:12 45° WNW 22:53:43 10° N
Cosmos 1437 Rocket 4.2 22:46:57 10° N 22:49:10 30° NNE 22:49:10 30° NNE
ATLAS 5 CENTAUR R/B 3.6 22:47:33 10° NNW 22:52:40 30° NE 22:54:09 27° ENE
Cosmos 1850 Rocket 4.4 22:58:52 10° NNW 23:03:21 53° NE 23:03:21 53° NE
Cosmos 1140 Rocket 3.7 23:02:14 10° NNW 23:07:08 62° W 23:07:08 62° W
SPOT 5 3.4 23:07:48 50° W 23:07:48 50° W 23:11:46 10° NNW
Lacrosse 5 3.1 23:04:49 10° NW 23:09:26 33° NNE 23:09:43 33° NE
Cosmos 1741 Rocket 4.4 23:06:29 10° NNW 23:11:08 58° NNE 23:11:08 58° NNE
Cosmos 1934 Rocket 3.8 23:17:32 87° WSW 23:17:36 88° W 23:23:42 10° N
GEOS 3 Rocket 4.4 23:15:27 10° NNE 23:20:37 50° NW 23:24:43 16° WSW
CZ-2C R/B 3.8 23:30:14 45° N 23:30:14 45° N 23:33:36 10° N
Nimbus 7 Rocket 4.4 23:23:26 10° NNE 23:28:53 77° N 23:28:53 77° N
SL-16 R/B 3.8 23:25:44 10° WSW 23:30:44 32° NW 23:35:47 10° N
BREEZE M DEB (TANK) 4.3 23:23:47 10° W 23:35:11 44° NNW 23:36:54 32° NE
Cosmos 1943 Rocket 2.9 23:31:42 10° NNW 23:36:08 45° NNE 23:36:08 45° NNE
H-2A R/B 4.5 23:45:23 17° NE 23:45:23 17° NE 23:47:00 10° NNE
